Weather History for KEFD - October, 2012

Change the Weather History Date:

Wednesday, October 31, 2012

  Actual Average Record
Temperature  
Mean Temperature 72 °F -  
Max Temperature 86 °F 75 °F 87 °F (2004)
Min Temperature 59 °F 57 °F 50 °F (1998)
Cooling Degree Days 8    
Growing Degree Days 22 (Base 50)    
Moisture  
Dew Point 59 °F    
Average Humidity 68    
Maximum Humidity 88    
Minimum Humidity 40    
Precipitation  
Precipitation 0.00 in - - ()
Sea Level Pressure  
Sea Level Pressure 30.01 in    
Wind  
Wind Speed 2 mph (SSW)    
Max Wind Speed 9 mph    
Max Gust Speed -    
Visibility 10 miles    
Events      
Averages and records for this station are not official NWS values.
T = Trace of Precipitation, MM = Missing Value Source: NWS Daily Summary

Daily Weather History Graph

Daily Weather History Graph

Search for Another Location

Airport or City:

Trip Planner

Search our weather history database for the weather conditions in past years. The results will help you decide how hot, cold, wet, or windy it might be!

Date:

Astronomy

Oct. 31, 2012 Rise Set
Actual Time 7:33 AM CDT 6:34 PM CDT
Civil Twilight 7:09 AM CDT 6:58 PM CDT
Nautical Twilight 6:40 AM CDT 7:27 PM CDT
Astronomical Twilight 6:12 AM CDT 7:55 PM CDT
Moon 7:54 PM CDT (10/31) 9:07 AM CDT (10/31)
Length of Visible Light 11h 49m
Length of Day
11h 00m
Full, 97% of the Moon is Illuminated
Oct 31
Full
Nov 6
Last Quarter
Nov 13
New
Nov 20
First Quarter
Nov 28
Full

Hourly Weather History & Observations

Time (CDT) Temp. Heat Index Dew Point Humidity Pressure Visibility Wind Dir Wind Speed Gust Speed Precip Events Conditions
12:50 AM 62.6 °F - 53.6 °F 72% 30.03 in 10.0 mi Calm Calm - N/A   Clear
1:50 AM 64.4 °F - 53.6 °F 68% 30.02 in 10.0 mi Calm Calm - N/A   Clear
2:50 AM 62.6 °F - 53.6 °F 72% 30.02 in 10.0 mi Calm Calm - N/A   Clear
3:50 AM 62.6 °F - 55.4 °F 77% 30.01 in 10.0 mi Calm Calm - N/A   Clear
4:50 AM 60.8 °F - 55.4 °F 82% 30.01 in 10.0 mi Calm Calm - N/A   Clear
6:50 AM 59.0 °F - 53.6 °F 82% 30.02 in 10.0 mi Calm Calm - N/A   Clear
7:50 AM 59.0 °F - 55.4 °F 88% 30.03 in 10.0 mi Calm Calm - N/A   Clear
8:50 AM 60.8 °F - 57.2 °F 88% 30.05 in 10.0 mi Calm Calm - N/A   Partly Cloudy
10:50 AM 73.4 °F - 64.4 °F 73% 30.07 in 10.0 mi Calm Calm - N/A   Scattered Clouds
11:50 AM 77.0 °F - 62.6 °F 61% 30.06 in 10.0 mi West 8.1 mph - N/A   Scattered Clouds
12:50 PM 80.6 °F 81.8 °F 62.6 °F 54% 30.04 in 10.0 mi SSW 9.2 mph - N/A   Scattered Clouds
1:50 PM 82.4 °F 82.9 °F 60.8 °F 48% 30.00 in 10.0 mi WSW 6.9 mph - N/A   Scattered Clouds
2:50 PM 84.2 °F 84.4 °F 60.8 °F 45% 29.98 in 10.0 mi West 5.8 mph - N/A   Scattered Clouds
3:50 PM 86.0 °F 85.4 °F 59.0 °F 40% 29.97 in 10.0 mi SW 3.5 mph - N/A   Scattered Clouds
4:50 PM 86.0 °F 85.4 °F 59.0 °F 40% 29.96 in 10.0 mi SW 3.5 mph - N/A   Scattered Clouds
5:50 PM 84.2 °F 85.0 °F 62.6 °F 48% 29.97 in 10.0 mi South 9.2 mph - N/A   Scattered Clouds
6:50 PM 77.0 °F - 62.6 °F 61% 29.98 in 10.0 mi South 4.6 mph - N/A   Scattered Clouds
7:50 PM 69.8 °F - 62.6 °F 78% 30.00 in 10.0 mi South 4.6 mph - N/A   Partly Cloudy
8:50 PM 71.6 °F - 62.6 °F 73% 30.02 in 10.0 mi South 3.5 mph - N/A   Clear
9:50 PM 71.6 °F - 64.4 °F 78% 30.03 in 10.0 mi Calm Calm - N/A   Clear
10:50 PM 69.8 °F - 64.4 °F 83% 30.03 in 10.0 mi South 4.6 mph - N/A   Clear
11:50 PM 69.8 °F - 62.6 °F 78% 30.03 in 10.0 mi South 3.5 mph - N/A   Clear